Location: ??????
(41.3164°N, 22.6615°E)
Time: 20:51:59
(UTC+00:00)

Radarsat Rocket - Pass Details

Date: 16 October 2021
Orbit: 933 x 1491 km, 100.6° (Epoch: 29 November)

Event Time Altitude Azimuth Distance (km) Brightness Sun altitude
Rises 16:12:10 0° 168° (SSE) 3,621 6.9 -5.5°
Reaches altitude 10° 16:14:31 10° 170° (S) 2,714 6.3 -6.0°
Maximum altitude 16:20:33 73° 255° (WSW) 1,086 4.5 -7.1°
Drops below altitude 10° 16:27:20 10° 341° (NNW) 3,038 6.8 -8.4°
Sets 16:30:06 0° 343° (NNW) 4,083 7.4 -8.9°
